Year,Month,Day,Hour,Minute,Value (Times are PST for temperature in C)
2012,09,13,00,00,9.00
2012,09,13,00,01,9.00
2012,09,13,00,02,9.00
2012,09,13,00,03,9.00
2012,09,13,00,04,9.00
2012,09,13,00,05,9.00
2012,09,13,00,06,8.90
2012,09,13,00,07,8.90
2012,09,13,00,08,8.90
2012,09,13,00,09,8.90
2012,09,13,00,10,8.90
2012,09,13,00,11,8.80
2012,09,13,00,12,8.80
2012,09,13,00,13,8.80
2012,09,13,00,14,8.70
2012,09,13,00,15,8.70
2012,09,13,00,16,8.70
2012,09,13,00,17,8.60
2012,09,13,00,18,8.60
2012,09,13,00,19,8.60
2012,09,13,00,20,8.60
2012,09,13,00,21,8.50
2012,09,13,00,22,8.50
2012,09,13,00,23,8.40
2012,09,13,00,24,8.40
2012,09,13,00,25,8.40
2012,09,13,00,26,8.40
2012,09,13,00,27,8.40
2012,09,13,00,28,8.50
2012,09,13,00,29,8.50
2012,09,13,00,30,8.60
2012,09,13,00,31,8.60
2012,09,13,00,32,8.60
2012,09,13,00,33,8.70
2012,09,13,00,34,8.70
2012,09,13,00,35,8.70
2012,09,13,00,36,8.70
2012,09,13,00,37,8.70
2012,09,13,00,38,8.70
2012,09,13,00,39,8.80
2012,09,13,00,40,8.80
2012,09,13,00,41,8.80
2012,09,13,00,42,8.90
2012,09,13,00,43,8.90
2012,09,13,00,44,8.90
2012,09,13,00,45,8.90
2012,09,13,00,46,8.90
2012,09,13,00,47,9.00
2012,09,13,00,48,9.00
2012,09,13,00,49,9.10
2012,09,13,00,50,9.10
2012,09,13,00,51,9.10
2012,09,13,00,52,9.10
2012,09,13,00,53,9.10
2012,09,13,00,54,9.10
2012,09,13,00,55,9.10
2012,09,13,00,56,9.10
2012,09,13,00,57,9.10
2012,09,13,00,58,9.10
2012,09,13,00,59,9.00
2012,09,13,01,00,9.00
2012,09,13,01,01,9.00
2012,09,13,01,02,9.10
2012,09,13,01,03,9.10
2012,09,13,01,04,9.20
2012,09,13,01,05,9.20
2012,09,13,01,06,9.20
2012,09,13,01,07,9.30
2012,09,13,01,08,9.30
2012,09,13,01,09,9.30
2012,09,13,01,10,9.30
2012,09,13,01,11,9.30
2012,09,13,01,12,9.30
2012,09,13,01,13,9.30
2012,09,13,01,14,9.30
2012,09,13,01,15,9.30
2012,09,13,01,16,9.30
2012,09,13,01,17,9.20
2012,09,13,01,18,9.20
2012,09,13,01,19,9.20
2012,09,13,01,20,9.20
2012,09,13,01,21,9.20
2012,09,13,01,22,9.10
2012,09,13,01,23,9.10
2012,09,13,01,24,9.10
2012,09,13,01,25,9.10
2012,09,13,01,26,9.00
2012,09,13,01,27,9.00
2012,09,13,01,28,9.00
2012,09,13,01,29,9.00
2012,09,13,01,30,9.00
2012,09,13,01,31,9.00
2012,09,13,01,32,9.00
2012,09,13,01,33,9.00
2012,09,13,01,34,9.00
2012,09,13,01,35,8.90
2012,09,13,01,36,8.90
2012,09,13,01,37,8.90
2012,09,13,01,38,8.90
2012,09,13,01,39,8.80
2012,09,13,01,40,8.80
2012,09,13,01,41,8.80
2012,09,13,01,42,8.90
2012,09,13,01,43,8.90
2012,09,13,01,44,8.90
2012,09,13,01,45,9.00
2012,09,13,01,46,9.00
2012,09,13,01,47,9.00
2012,09,13,01,48,9.00
2012,09,13,01,49,9.00
2012,09,13,01,50,9.10
2012,09,13,01,51,9.10
2012,09,13,01,52,9.20
2012,09,13,01,53,9.20
2012,09,13,01,54,9.20
2012,09,13,01,55,9.20
2012,09,13,01,56,9.20
2012,09,13,01,57,9.10
2012,09,13,01,58,9.10
2012,09,13,01,59,9.10
2012,09,13,02,00,9.10
2012,09,13,02,01,9.10
2012,09,13,02,02,9.10
2012,09,13,02,03,9.10
2012,09,13,02,04,9.10
2012,09,13,02,05,9.10
2012,09,13,02,06,9.10
2012,09,13,02,07,9.10
2012,09,13,02,08,9.10
2012,09,13,02,09,9.10
2012,09,13,02,10,9.10
2012,09,13,02,11,9.10
2012,09,13,02,12,9.10
2012,09,13,02,13,9.00
2012,09,13,02,14,9.00
2012,09,13,02,15,9.00
2012,09,13,02,16,9.00
2012,09,13,02,17,8.90
2012,09,13,02,18,8.90
2012,09,13,02,19,8.90
2012,09,13,02,20,8.90
2012,09,13,02,21,8.90
2012,09,13,02,22,8.90
2012,09,13,02,23,9.00
2012,09,13,02,24,9.10
2012,09,13,02,25,9.20
2012,09,13,02,26,9.20
2012,09,13,02,27,9.20
2012,09,13,02,28,9.20
2012,09,13,02,29,9.30
2012,09,13,02,30,9.30
2012,09,13,02,31,9.30
2012,09,13,02,32,9.30
2012,09,13,02,33,9.30
2012,09,13,02,34,9.30
2012,09,13,02,35,9.30
2012,09,13,02,36,9.30
2012,09,13,02,37,9.30
2012,09,13,02,38,9.30
2012,09,13,02,39,9.30
2012,09,13,02,40,9.30
2012,09,13,02,41,9.30
2012,09,13,02,42,9.20
2012,09,13,02,43,9.30
2012,09,13,02,44,9.30
2012,09,13,02,45,9.30
2012,09,13,02,46,9.30
2012,09,13,02,47,9.30
2012,09,13,02,48,9.30
2012,09,13,02,49,9.20
2012,09,13,02,50,9.20
2012,09,13,02,51,9.20
2012,09,13,02,52,9.20
2012,09,13,02,53,9.20
2012,09,13,02,54,9.10
2012,09,13,02,55,9.10
2012,09,13,02,56,9.10
2012,09,13,02,57,9.10
2012,09,13,02,58,9.00
2012,09,13,02,59,9.00
2012,09,13,03,00,9.00
2012,09,13,03,01,8.90
2012,09,13,03,02,8.90
2012,09,13,03,03,8.90
2012,09,13,03,04,8.90
2012,09,13,03,05,8.90
2012,09,13,03,06,8.80
2012,09,13,03,07,8.80
2012,09,13,03,08,8.80
2012,09,13,03,09,8.80
2012,09,13,03,10,8.80
2012,09,13,03,11,8.80
2012,09,13,03,12,8.80
2012,09,13,03,13,8.80
2012,09,13,03,14,8.80
2012,09,13,03,15,8.80
2012,09,13,03,16,8.80
2012,09,13,03,17,8.80
2012,09,13,03,18,8.80
2012,09,13,03,19,8.80
2012,09,13,03,20,8.70
2012,09,13,03,21,8.70
2012,09,13,03,22,8.70
2012,09,13,03,23,8.60
2012,09,13,03,24,8.60
2012,09,13,03,25,8.60
2012,09,13,03,26,8.70
2012,09,13,03,27,8.70
2012,09,13,03,28,8.70
2012,09,13,03,29,8.70
2012,09,13,03,30,8.80
2012,09,13,03,31,8.80
2012,09,13,03,32,8.90
2012,09,13,03,33,8.90
2012,09,13,03,34,8.90
2012,09,13,03,35,8.90
2012,09,13,03,36,8.90
2012,09,13,03,37,8.90
2012,09,13,03,38,8.90
2012,09,13,03,39,8.90
2012,09,13,03,40,8.90
2012,09,13,03,41,8.90
2012,09,13,03,42,8.90
2012,09,13,03,43,8.80
2012,09,13,03,44,8.80
2012,09,13,03,45,8.80
2012,09,13,03,46,8.70
2012,09,13,03,47,8.70
2012,09,13,03,48,8.60
2012,09,13,03,49,8.60
2012,09,13,03,50,8.60
2012,09,13,03,51,8.60
2012,09,13,03,52,8.50
2012,09,13,03,53,8.50
2012,09,13,03,54,8.50
2012,09,13,03,55,8.50
2012,09,13,03,56,8.50
2012,09,13,03,57,8.40
2012,09,13,03,58,8.40
2012,09,13,03,59,8.30
2012,09,13,04,00,8.30
2012,09,13,04,01,8.40
2012,09,13,04,02,8.40
2012,09,13,04,03,8.40
2012,09,13,04,04,8.40
2012,09,13,04,05,8.40
2012,09,13,04,06,8.40
2012,09,13,04,07,8.40
2012,09,13,04,08,8.40
2012,09,13,04,09,8.40
2012,09,13,04,10,8.40
2012,09,13,04,11,8.40
2012,09,13,04,12,8.40
2012,09,13,04,13,8.40
2012,09,13,04,14,8.40
2012,09,13,04,15,8.50
2012,09,13,04,16,8.50
2012,09,13,04,17,8.50
2012,09,13,04,18,8.50
2012,09,13,04,19,8.50
2012,09,13,04,20,8.50
2012,09,13,04,21,8.50
2012,09,13,04,22,8.50
2012,09,13,04,23,8.50
2012,09,13,04,24,8.50
2012,09,13,04,25,8.40
2012,09,13,04,26,8.40
2012,09,13,04,27,8.40
2012,09,13,04,28,8.40
2012,09,13,04,29,8.40
2012,09,13,04,30,8.40
2012,09,13,04,31,8.40
2012,09,13,04,32,8.40
2012,09,13,04,33,8.50
2012,09,13,04,34,8.50
2012,09,13,04,35,8.60
2012,09,13,04,36,8.60
2012,09,13,04,37,8.70
2012,09,13,04,38,8.80
2012,09,13,04,39,8.80
2012,09,13,04,40,8.90
2012,09,13,04,41,8.90
2012,09,13,04,42,8.90
2012,09,13,04,43,8.90
2012,09,13,04,44,9.00
2012,09,13,04,45,9.00
2012,09,13,04,46,9.10
2012,09,13,04,47,9.10
2012,09,13,04,48,9.10
2012,09,13,04,49,9.10
2012,09,13,04,50,9.10
2012,09,13,04,51,9.10
2012,09,13,04,52,9.10
2012,09,13,04,53,9.10
2012,09,13,04,54,9.10
2012,09,13,04,55,9.10
2012,09,13,04,56,9.10
2012,09,13,04,57,9.00
2012,09,13,04,58,9.00
2012,09,13,04,59,9.00
2012,09,13,05,00,9.00
2012,09,13,05,01,9.10
2012,09,13,05,02,9.10
2012,09,13,05,03,9.10
2012,09,13,05,04,9.10
2012,09,13,05,05,9.10
2012,09,13,05,06,9.10
2012,09,13,05,07,9.10
2012,09,13,05,08,9.00
2012,09,13,05,09,9.00
2012,09,13,05,10,9.00
2012,09,13,05,11,9.00
2012,09,13,05,12,9.10
2012,09,13,05,13,9.10
2012,09,13,05,14,9.10
2012,09,13,05,15,9.10
2012,09,13,05,16,9.10
2012,09,13,05,17,9.10
2012,09,13,05,18,9.10
2012,09,13,05,19,9.10
2012,09,13,05,20,9.00
2012,09,13,05,21,9.00
2012,09,13,05,22,8.90
2012,09,13,05,23,8.90
2012,09,13,05,24,8.90
2012,09,13,05,25,8.80
2012,09,13,05,26,8.80
2012,09,13,05,27,8.70
2012,09,13,05,28,8.70
2012,09,13,05,29,8.60
2012,09,13,05,30,8.60
2012,09,13,05,31,8.60
2012,09,13,05,32,8.60
2012,09,13,05,33,8.60
2012,09,13,05,34,8.60
2012,09,13,05,35,8.60
2012,09,13,05,36,8.60
2012,09,13,05,37,8.60
2012,09,13,05,38,8.70
2012,09,13,05,39,8.70
2012,09,13,05,40,8.70
2012,09,13,05,41,8.70
2012,09,13,05,42,8.70
2012,09,13,05,43,8.70
2012,09,13,05,44,8.70
2012,09,13,05,45,8.70
2012,09,13,05,46,8.70
2012,09,13,05,47,8.70
2012,09,13,05,48,8.70
2012,09,13,05,49,8.60
2012,09,13,05,50,8.60
2012,09,13,05,51,8.60
2012,09,13,05,52,8.60
2012,09,13,05,53,8.60
2012,09,13,05,54,8.50
2012,09,13,05,55,8.50
2012,09,13,05,56,8.50
2012,09,13,05,57,8.50
2012,09,13,05,58,8.50
2012,09,13,05,59,8.50
2012,09,13,06,00,8.50
2012,09,13,06,01,8.50
2012,09,13,06,02,8.40
2012,09,13,06,03,8.40
2012,09,13,06,04,8.40
2012,09,13,06,05,8.40
2012,09,13,06,06,8.40
2012,09,13,06,07,8.40
2012,09,13,06,08,8.40
2012,09,13,06,09,8.40
2012,09,13,06,10,8.40
2012,09,13,06,11,8.40
2012,09,13,06,12,8.40
2012,09,13,06,13,8.30
2012,09,13,06,14,8.30
2012,09,13,06,15,8.30
2012,09,13,06,16,8.20
2012,09,13,06,17,8.10
2012,09,13,06,18,8.10
2012,09,13,06,19,8.10
2012,09,13,06,20,8.10
2012,09,13,06,21,8.10
2012,09,13,06,22,8.10
2012,09,13,06,23,8.10
2012,09,13,06,24,8.00
2012,09,13,06,25,8.00
2012,09,13,06,26,8.00
2012,09,13,06,27,8.00
2012,09,13,06,28,8.00
2012,09,13,06,29,8.00
2012,09,13,06,30,8.00
2012,09,13,06,31,8.00
2012,09,13,06,32,8.00
2012,09,13,06,33,8.00
2012,09,13,06,34,8.00
2012,09,13,06,35,8.00
2012,09,13,06,36,8.00
2012,09,13,06,37,8.00
2012,09,13,06,38,8.00
2012,09,13,06,39,8.10
2012,09,13,06,40,8.10
2012,09,13,06,41,8.10
2012,09,13,06,42,8.10
2012,09,13,06,43,8.20
2012,09,13,06,44,8.30
2012,09,13,06,45,8.40
2012,09,13,06,46,8.50
2012,09,13,06,47,8.50
2012,09,13,06,48,8.60
2012,09,13,06,49,8.70
2012,09,13,06,50,8.80
2012,09,13,06,51,8.80
2012,09,13,06,52,8.80
2012,09,13,06,53,8.80
2012,09,13,06,54,8.80
2012,09,13,06,55,8.80
2012,09,13,06,56,8.80
2012,09,13,06,57,8.80
2012,09,13,06,58,8.80
2012,09,13,06,59,8.80
2012,09,13,07,00,8.90
2012,09,13,07,01,8.90
2012,09,13,07,02,8.90
2012,09,13,07,03,9.00
2012,09,13,07,04,9.00
2012,09,13,07,05,8.90
2012,09,13,07,06,8.90
2012,09,13,07,07,8.90
2012,09,13,07,08,8.90
2012,09,13,07,09,8.90
2012,09,13,07,10,9.00
2012,09,13,07,11,9.00
2012,09,13,07,12,9.10
2012,09,13,07,13,9.20
2012,09,13,07,14,9.30
2012,09,13,07,15,9.50
2012,09,13,07,16,9.50
2012,09,13,07,17,9.70
2012,09,13,07,18,9.80
2012,09,13,07,19,9.90
2012,09,13,07,20,10.00
2012,09,13,07,21,10.10
2012,09,13,07,22,10.20
2012,09,13,07,23,10.30
2012,09,13,07,24,10.40
2012,09,13,07,25,10.50
2012,09,13,07,26,10.60
2012,09,13,07,27,10.80
2012,09,13,07,28,10.90
2012,09,13,07,29,11.00
2012,09,13,07,30,11.10
2012,09,13,07,31,11.20
2012,09,13,07,32,11.30
2012,09,13,07,33,11.40
2012,09,13,07,34,11.50
2012,09,13,07,35,11.50
2012,09,13,07,36,11.60
2012,09,13,07,37,11.60
2012,09,13,07,38,11.70
2012,09,13,07,39,11.70
2012,09,13,07,40,11.70
2012,09,13,07,41,11.80
2012,09,13,07,42,11.80
2012,09,13,07,43,11.80
2012,09,13,07,44,11.90
2012,09,13,07,45,11.90
2012,09,13,07,46,11.90
2012,09,13,07,47,12.00
2012,09,13,07,48,12.10
2012,09,13,07,49,12.10
2012,09,13,07,50,12.10
2012,09,13,07,51,12.20
2012,09,13,07,52,12.20
2012,09,13,07,53,12.30
2012,09,13,07,54,12.30
2012,09,13,07,55,12.30
2012,09,13,07,56,12.40
2012,09,13,07,57,12.40
2012,09,13,07,58,12.40
2012,09,13,07,59,12.50
2012,09,13,08,00,12.50
2012,09,13,08,01,12.60
2012,09,13,08,02,12.60
2012,09,13,08,03,12.60
2012,09,13,08,04,12.60
2012,09,13,08,05,12.70
2012,09,13,08,06,12.80
2012,09,13,08,07,12.80
2012,09,13,08,08,12.80
2012,09,13,08,09,12.90
2012,09,13,08,10,12.90
2012,09,13,08,11,12.90
2012,09,13,08,12,12.90
2012,09,13,08,13,13.00
2012,09,13,08,14,13.00
2012,09,13,08,15,13.00
2012,09,13,08,16,13.10
2012,09,13,08,17,13.10
2012,09,13,08,18,13.10
2012,09,13,08,19,13.10
2012,09,13,08,20,13.10
2012,09,13,08,21,13.10
2012,09,13,08,22,13.10
2012,09,13,08,23,13.10
2012,09,13,08,24,13.20
2012,09,13,08,25,13.20
2012,09,13,08,26,13.20
2012,09,13,08,27,13.20
2012,09,13,08,28,13.30
2012,09,13,08,29,13.30
2012,09,13,08,30,13.30
2012,09,13,08,31,13.40
2012,09,13,08,32,13.40
2012,09,13,08,33,13.40
2012,09,13,08,34,13.40
2012,09,13,08,35,13.50
2012,09,13,08,36,13.50
2012,09,13,08,37,13.60
2012,09,13,08,38,13.70
2012,09,13,08,39,13.70
2012,09,13,08,40,13.80
2012,09,13,08,41,13.80
2012,09,13,08,42,13.90
2012,09,13,08,43,14.00
2012,09,13,08,44,14.10
2012,09,13,08,45,14.20
2012,09,13,08,46,14.20
2012,09,13,08,47,14.30
2012,09,13,08,48,14.40
2012,09,13,08,49,14.50
2012,09,13,08,50,14.60
2012,09,13,08,51,14.70
2012,09,13,08,52,14.70
2012,09,13,08,53,14.70
2012,09,13,08,54,14.80
2012,09,13,08,55,14.80
2012,09,13,08,56,14.80
2012,09,13,08,57,14.90
2012,09,13,08,58,14.90
2012,09,13,08,59,15.00
2012,09,13,09,00,15.00
2012,09,13,09,01,15.00
2012,09,13,09,02,15.10
2012,09,13,09,03,15.10
2012,09,13,09,04,15.10
2012,09,13,09,05,15.10
2012,09,13,09,06,15.20
2012,09,13,09,07,15.20
2012,09,13,09,08,15.30
2012,09,13,09,09,15.30
2012,09,13,09,10,15.30
2012,09,13,09,11,15.30
2012,09,13,09,12,15.30
2012,09,13,09,13,15.30
2012,09,13,09,14,15.30
2012,09,13,09,15,15.40
2012,09,13,09,16,15.40
2012,09,13,09,17,15.50
2012,09,13,09,18,15.50
2012,09,13,09,19,15.60
2012,09,13,09,20,15.70
2012,09,13,09,21,15.70
2012,09,13,09,22,15.80
2012,09,13,09,23,15.90
2012,09,13,09,24,15.90
2012,09,13,09,25,16.00
2012,09,13,09,26,16.00
2012,09,13,09,27,16.10
2012,09,13,09,28,16.10
2012,09,13,09,29,16.10
2012,09,13,09,30,16.10
2012,09,13,09,31,16.10
2012,09,13,09,32,16.20
2012,09,13,09,33,16.20
2012,09,13,09,34,16.30
2012,09,13,09,35,16.30
2012,09,13,09,36,16.30
2012,09,13,09,37,16.30
2012,09,13,09,38,16.30
2012,09,13,09,39,16.40
2012,09,13,09,40,16.40
2012,09,13,09,41,16.40
2012,09,13,09,42,16.40
2012,09,13,09,43,16.50
2012,09,13,09,44,16.50
2012,09,13,09,45,16.60
2012,09,13,09,46,16.60
2012,09,13,09,47,16.60
2012,09,13,09,48,16.60
2012,09,13,09,49,16.70
2012,09,13,09,50,16.70
2012,09,13,09,51,16.70
2012,09,13,09,52,16.70
2012,09,13,09,53,16.70
2012,09,13,09,54,16.70
2012,09,13,09,55,16.70
2012,09,13,09,56,16.70
2012,09,13,09,57,16.70
2012,09,13,09,58,16.80
2012,09,13,09,59,16.80
2012,09,13,10,00,16.90
2012,09,13,10,01,16.90
2012,09,13,10,02,16.90
2012,09,13,10,03,17.00
2012,09,13,10,04,17.00
2012,09,13,10,05,17.10
2012,09,13,10,06,17.10
2012,09,13,10,07,17.10
2012,09,13,10,08,17.10
2012,09,13,10,09,17.20
2012,09,13,10,10,17.20
2012,09,13,10,11,17.20
2012,09,13,10,12,17.30
2012,09,13,10,13,17.30
2012,09,13,10,14,17.30
2012,09,13,10,15,17.40
2012,09,13,10,16,17.40
2012,09,13,10,17,17.40
2012,09,13,10,18,17.50
2012,09,13,10,19,17.50
2012,09,13,10,20,17.60
2012,09,13,10,21,17.70
2012,09,13,10,22,17.70
2012,09,13,10,23,17.80
2012,09,13,10,24,17.90
2012,09,13,10,25,18.00
2012,09,13,10,26,18.00
2012,09,13,10,27,18.10
2012,09,13,10,28,18.10
2012,09,13,10,29,18.10
2012,09,13,10,30,18.20
2012,09,13,10,31,18.20
2012,09,13,10,32,18.30
2012,09,13,10,33,18.40
2012,09,13,10,34,18.40
2012,09,13,10,35,18.50
2012,09,13,10,36,18.50
2012,09,13,10,37,18.60
2012,09,13,10,38,18.60
2012,09,13,10,39,18.60
2012,09,13,10,40,18.70
2012,09,13,10,41,18.80
2012,09,13,10,42,18.80
2012,09,13,10,43,18.90
2012,09,13,10,44,18.90
2012,09,13,10,45,19.00
2012,09,13,10,46,19.10
2012,09,13,10,47,19.10
2012,09,13,10,48,19.10
2012,09,13,10,49,19.10
2012,09,13,10,50,19.10
2012,09,13,10,51,19.10
2012,09,13,10,52,19.10
2012,09,13,10,53,19.20
2012,09,13,10,54,19.20
2012,09,13,10,55,19.20
2012,09,13,10,56,19.30
2012,09,13,10,57,19.30
2012,09,13,10,58,19.30
2012,09,13,10,59,19.30
2012,09,13,11,00,19.30
2012,09,13,11,01,19.30
2012,09,13,11,02,19.30
2012,09,13,11,03,19.30
2012,09,13,11,04,19.30
2012,09,13,11,05,19.40
2012,09,13,11,06,19.50
2012,09,13,11,07,19.50
2012,09,13,11,08,19.50
2012,09,13,11,09,19.60
2012,09,13,11,10,19.60
2012,09,13,11,11,19.60
2012,09,13,11,12,19.60
2012,09,13,11,13,19.60
2012,09,13,11,14,19.60
2012,09,13,11,15,19.60
2012,09,13,11,16,19.60
2012,09,13,11,17,19.70
2012,09,13,11,18,19.70
2012,09,13,11,19,19.80
2012,09,13,11,20,19.80
2012,09,13,11,21,19.80
2012,09,13,11,22,19.80
2012,09,13,11,23,19.80
2012,09,13,11,24,19.80
2012,09,13,11,25,19.80
2012,09,13,11,26,19.90
2012,09,13,11,27,19.90
2012,09,13,11,28,20.00
2012,09,13,11,29,20.00
2012,09,13,11,30,20.10
2012,09,13,11,31,20.10
2012,09,13,11,32,20.20
2012,09,13,11,33,20.20
2012,09,13,11,34,20.20
2012,09,13,11,35,20.20
2012,09,13,11,36,20.20
2012,09,13,11,37,20.20
2012,09,13,11,38,20.10
2012,09,13,11,39,20.10
2012,09,13,11,40,20.10
2012,09,13,11,41,20.20
2012,09,13,11,42,20.20
2012,09,13,11,43,20.30
2012,09,13,11,44,20.30
2012,09,13,11,45,20.30
2012,09,13,11,46,20.40
2012,09,13,11,47,20.40
2012,09,13,11,48,20.40
2012,09,13,11,49,20.50
2012,09,13,11,50,20.40
2012,09,13,11,51,20.40
2012,09,13,11,52,20.40
2012,09,13,11,53,20.40
2012,09,13,11,54,20.50
2012,09,13,11,55,20.50
2012,09,13,11,56,20.50
2012,09,13,11,57,20.50
2012,09,13,11,58,20.60
2012,09,13,11,59,20.60
2012,09,13,12,00,20.70
2012,09,13,12,01,20.70
2012,09,13,12,02,20.70
2012,09,13,12,03,20.80
2012,09,13,12,04,20.80
2012,09,13,12,05,20.80
2012,09,13,12,06,20.90
2012,09,13,12,07,20.90
2012,09,13,12,08,20.90
2012,09,13,12,09,21.00
2012,09,13,12,10,21.00
2012,09,13,12,11,21.00
2012,09,13,12,12,21.00
2012,09,13,12,13,21.10
2012,09,13,12,14,21.20
2012,09,13,12,15,21.20
2012,09,13,12,16,21.30
2012,09,13,12,17,21.40
2012,09,13,12,18,21.40
2012,09,13,12,19,21.30
2012,09,13,12,20,21.30
2012,09,13,12,21,21.40
2012,09,13,12,22,21.40
2012,09,13,12,23,21.40
2012,09,13,12,24,21.50
2012,09,13,12,25,21.60
2012,09,13,12,26,21.60
2012,09,13,12,27,21.60
2012,09,13,12,28,21.60
2012,09,13,12,29,21.60
2012,09,13,12,30,21.60
2012,09,13,12,31,21.60
2012,09,13,12,32,21.60
2012,09,13,12,33,21.70
2012,09,13,12,34,21.80
2012,09,13,12,35,21.80
2012,09,13,12,36,21.90
2012,09,13,12,37,21.90
2012,09,13,12,38,22.00
2012,09,13,12,39,22.10
2012,09,13,12,40,22.20
2012,09,13,12,41,22.20
2012,09,13,12,42,22.20
2012,09,13,12,43,22.30
2012,09,13,12,44,22.30
2012,09,13,12,45,22.40
2012,09,13,12,46,22.50
2012,09,13,12,47,22.50
2012,09,13,12,48,22.60
2012,09,13,12,49,22.60
2012,09,13,12,50,22.50
2012,09,13,12,51,22.40
2012,09,13,12,52,22.30
2012,09,13,12,53,22.20
2012,09,13,12,54,22.10
2012,09,13,12,55,22.10
2012,09,13,12,56,22.10
2012,09,13,12,57,22.10
2012,09,13,12,58,22.10
2012,09,13,12,59,22.20
2012,09,13,13,00,22.20
2012,09,13,13,01,22.30
2012,09,13,13,02,22.30
2012,09,13,13,03,22.40
2012,09,13,13,04,22.40
2012,09,13,13,05,22.50
2012,09,13,13,06,22.50
2012,09,13,13,07,22.60
2012,09,13,13,08,22.60
2012,09,13,13,09,22.60
2012,09,13,13,10,22.60
2012,09,13,13,11,22.60
2012,09,13,13,12,22.60
2012,09,13,13,13,22.60
2012,09,13,13,14,22.60
2012,09,13,13,15,22.70
2012,09,13,13,16,22.70
2012,09,13,13,17,22.70
2012,09,13,13,18,22.80
2012,09,13,13,19,22.90
2012,09,13,13,20,22.90
2012,09,13,13,21,22.90
2012,09,13,13,22,22.90
2012,09,13,13,23,22.80
2012,09,13,13,24,22.80
2012,09,13,13,25,22.80
2012,09,13,13,26,22.80
2012,09,13,13,27,22.80
2012,09,13,13,28,22.80
2012,09,13,13,29,22.80
2012,09,13,13,30,22.80
2012,09,13,13,31,22.80
2012,09,13,13,32,22.90
2012,09,13,13,33,22.90
2012,09,13,13,34,22.90
2012,09,13,13,35,22.90
2012,09,13,13,36,23.00
2012,09,13,13,37,23.00
2012,09,13,13,38,22.90
2012,09,13,13,39,22.90
2012,09,13,13,40,22.90
2012,09,13,13,41,23.00
2012,09,13,13,42,23.00
2012,09,13,13,43,23.00
2012,09,13,13,44,23.10
2012,09,13,13,45,23.20
2012,09,13,13,46,23.10
2012,09,13,13,47,23.10
2012,09,13,13,48,23.10
2012,09,13,13,49,23.10
2012,09,13,13,50,23.20
2012,09,13,13,51,23.20
2012,09,13,13,52,23.20
2012,09,13,13,53,23.10
2012,09,13,13,54,23.10
2012,09,13,13,55,23.10
2012,09,13,13,56,23.10
2012,09,13,13,57,23.10
2012,09,13,13,58,23.10
2012,09,13,13,59,23.10
2012,09,13,14,00,23.10
2012,09,13,14,01,23.10
2012,09,13,14,02,23.10
2012,09,13,14,03,23.10
2012,09,13,14,04,23.10
2012,09,13,14,05,23.10
2012,09,13,14,06,23.00
2012,09,13,14,07,23.00
2012,09,13,14,08,22.90
2012,09,13,14,09,22.80
2012,09,13,14,10,22.70
2012,09,13,14,11,22.50
2012,09,13,14,12,22.40
2012,09,13,14,13,22.40
2012,09,13,14,14,22.30
2012,09,13,14,15,22.20
2012,09,13,14,16,22.10
2012,09,13,14,17,22.00
2012,09,13,14,18,21.90
2012,09,13,14,19,21.90
2012,09,13,14,20,21.80
2012,09,13,14,21,21.80
2012,09,13,14,22,21.80
2012,09,13,14,23,21.80
2012,09,13,14,24,21.80
2012,09,13,14,25,21.80
2012,09,13,14,26,21.80
2012,09,13,14,27,21.80
2012,09,13,14,28,21.70
2012,09,13,14,29,21.70
2012,09,13,14,30,21.70
2012,09,13,14,31,21.70
2012,09,13,14,32,21.70
2012,09,13,14,33,21.70
2012,09,13,14,34,21.70
2012,09,13,14,35,21.70
2012,09,13,14,36,21.70
2012,09,13,14,37,21.80
2012,09,13,14,38,21.80
2012,09,13,14,39,21.80
2012,09,13,14,40,21.90
2012,09,13,14,41,21.90
2012,09,13,14,42,21.90
2012,09,13,14,43,22.00
2012,09,13,14,44,22.10
2012,09,13,14,45,22.10
2012,09,13,14,46,22.10
2012,09,13,14,47,22.20
2012,09,13,14,48,22.20
2012,09,13,14,49,22.20
2012,09,13,14,50,22.30
2012,09,13,14,51,22.30
2012,09,13,14,52,22.40
2012,09,13,14,53,22.40
2012,09,13,14,54,22.50
2012,09,13,14,55,22.50
2012,09,13,14,56,22.60
2012,09,13,14,57,22.60
2012,09,13,14,58,22.60
2012,09,13,14,59,22.60
2012,09,13,15,00,22.60
2012,09,13,15,01,22.60
2012,09,13,15,02,22.60
2012,09,13,15,03,22.50
2012,09,13,15,04,22.50
2012,09,13,15,05,22.50
2012,09,13,15,06,22.50
2012,09,13,15,07,22.40
2012,09,13,15,08,22.40
2012,09,13,15,09,22.40
2012,09,13,15,10,22.40
2012,09,13,15,11,22.30
2012,09,13,15,12,22.20
2012,09,13,15,13,22.10
2012,09,13,15,14,22.00
2012,09,13,15,15,21.80
2012,09,13,15,16,21.70
2012,09,13,15,17,21.70
2012,09,13,15,18,21.60
2012,09,13,15,19,21.50
2012,09,13,15,20,21.40
2012,09,13,15,21,21.40
2012,09,13,15,22,21.30
2012,09,13,15,23,21.30
2012,09,13,15,24,21.30
2012,09,13,15,25,21.20
2012,09,13,15,26,21.20
2012,09,13,15,27,21.10
2012,09,13,15,28,21.00
2012,09,13,15,29,20.90
2012,09,13,15,30,20.80
2012,09,13,15,31,20.80
2012,09,13,15,32,20.70
2012,09,13,15,33,20.80
2012,09,13,15,34,20.80
2012,09,13,15,35,20.80
2012,09,13,15,36,20.80
2012,09,13,15,37,20.80
2012,09,13,15,38,20.80
2012,09,13,15,39,20.90
2012,09,13,15,40,21.00
2012,09,13,15,41,21.10
2012,09,13,15,42,21.10
2012,09,13,15,43,21.10
2012,09,13,15,44,21.20
2012,09,13,15,45,21.20
2012,09,13,15,46,21.10
2012,09,13,15,47,21.10
2012,09,13,15,48,21.10
2012,09,13,15,49,21.20
2012,09,13,15,50,21.20
2012,09,13,15,51,21.20
2012,09,13,15,52,21.20
2012,09,13,15,53,21.20
2012,09,13,15,54,21.20
2012,09,13,15,55,21.20
2012,09,13,15,56,21.20
2012,09,13,15,57,21.20
2012,09,13,15,58,21.20
2012,09,13,15,59,21.20
2012,09,13,16,00,21.20
2012,09,13,16,01,21.20
2012,09,13,16,02,21.20
2012,09,13,16,03,21.20
2012,09,13,16,04,21.20
2012,09,13,16,05,21.30
2012,09,13,16,06,21.30
2012,09,13,16,07,21.30
2012,09,13,16,08,21.30
2012,09,13,16,09,21.30
2012,09,13,16,10,21.30
2012,09,13,16,11,21.30
2012,09,13,16,12,21.30
2012,09,13,16,13,21.30
2012,09,13,16,14,21.30
2012,09,13,16,15,21.20
2012,09,13,16,16,21.20
2012,09,13,16,17,21.30
2012,09,13,16,18,21.30
2012,09,13,16,19,21.30
2012,09,13,16,20,21.30
2012,09,13,16,21,21.30
2012,09,13,16,22,21.30
2012,09,13,16,23,21.30
2012,09,13,16,24,21.30
2012,09,13,16,25,21.30
2012,09,13,16,26,21.30
2012,09,13,16,27,21.30
2012,09,13,16,28,21.30
2012,09,13,16,29,21.30
2012,09,13,16,30,21.30
2012,09,13,16,31,21.30
2012,09,13,16,32,21.20
2012,09,13,16,33,21.20
2012,09,13,16,34,21.20
2012,09,13,16,35,21.20
2012,09,13,16,36,21.20
2012,09,13,16,37,21.20
2012,09,13,16,38,21.20
2012,09,13,16,39,21.20
2012,09,13,16,40,21.20
2012,09,13,16,41,21.20
2012,09,13,16,42,21.20
2012,09,13,16,43,21.20
2012,09,13,16,44,21.30
2012,09,13,16,45,21.30
2012,09,13,16,46,21.30
2012,09,13,16,47,21.40
2012,09,13,16,48,21.30
2012,09,13,16,49,21.30
2012,09,13,16,50,21.30
2012,09,13,16,51,21.30
2012,09,13,16,52,21.30
2012,09,13,16,53,21.30
2012,09,13,16,54,21.30
2012,09,13,16,55,21.30
2012,09,13,16,56,21.30
2012,09,13,16,57,21.40
2012,09,13,16,58,21.40
2012,09,13,16,59,21.40
2012,09,13,17,00,21.40
2012,09,13,17,01,21.40
2012,09,13,17,02,21.40
2012,09,13,17,03,21.30
2012,09,13,17,04,21.30
2012,09,13,17,05,21.30
2012,09,13,17,06,21.30
2012,09,13,17,07,21.30
2012,09,13,17,08,21.30
2012,09,13,17,09,21.20
2012,09,13,17,10,21.20
2012,09,13,17,11,21.20
2012,09,13,17,12,21.20
2012,09,13,17,13,21.20
2012,09,13,17,14,21.20
2012,09,13,17,15,21.20
2012,09,13,17,16,21.10
2012,09,13,17,17,21.10
2012,09,13,17,18,21.10
2012,09,13,17,19,21.10
2012,09,13,17,20,21.00
2012,09,13,17,21,21.00
2012,09,13,17,22,20.90
2012,09,13,17,23,20.90
2012,09,13,17,24,20.90
2012,09,13,17,25,20.90
2012,09,13,17,26,20.80
2012,09,13,17,27,20.80
2012,09,13,17,28,20.70
2012,09,13,17,29,20.70
2012,09,13,17,30,20.70
2012,09,13,17,31,20.70
2012,09,13,17,32,20.70
2012,09,13,17,33,20.80
2012,09,13,17,34,20.80
2012,09,13,17,35,20.70
2012,09,13,17,36,20.70
2012,09,13,17,37,20.70
2012,09,13,17,38,20.60